Regional Weather Roundup
Issued by NWS

Home | Current Version | Previous Version | Graphics & Text | Print | Product List | Glossary On
Versions: 1 2 3 4 5 6 7 8 9 10 11 12 13 14 15 16 17 18 19 20 21 22 23 24 25 26 27 28 29 30 31 32 33 34 35 36 37 38 39 40 41 42 43 44 45 46 47 48 49 50
000
ASUS43 KMKX 251911
RWRWI

WISCONSIN REGIONAL WEATHER ROUNDUP
NATIONAL WEATHER SERVICE MILWAUKEE/SULLIVAN WI
200 PM CDT WED MAY 25 2016

NOTE: "FAIR" INDICATES FEW OR NO CLOUDS BELOW 12,000 FEET WITH NO
SIGNIFICANT WEATHER AND/OR OBSTRUCTIONS TO VISIBILITY.

WIZ001-002-006>008-014>016-023>028-252000-
NORTHWEST WISCONSIN

CITY           SKY/WX    TMP DP  RH WIND       PRES   REMARKS
SUPERIOR ARPT  FOG       46  46 100 E16G25    29.98F VSB 3/4
ASHLAND        CLOUDY    57  52  83 N14       29.98F
HAYWARD        CLOUDY    77  55  46 E12G17    29.90F
SIREN          RAIN      63  61  93 NW5       29.90S
CUMBERLAND     CLOUDY    64  59  82 NE6       29.88F THUNDER
RICE LAKE      CLOUDY    73  62  68 SE7       29.88F
CHETEK         CLOUDY    71  66  84 SE3       29.87F
LADYSMITH      CLOUDY    80  58  48 SE10G20   29.91F HX  80
EAU CLAIRE     PTSUNNY   78  60  53 SE8       29.85F
MENOMONIE      CLOUDY    73  67  80 SE6       29.87S
NEW RICHMOND   CLOUDY    65  64  96 NW3G12    29.88R
OSCEOLA        HVY RAIN  64  64 100 CALM      29.90F
$$

WIZ003>005-009-010-017-018-252000-
NORTH CENTRAL WISCONSIN

CITY           SKY/WX    TMP DP  RH WIND       PRES   REMARKS
MANITOWISH WTR NOT AVBL
ARBOR VITAE    PTSUNNY   77  56  48 SE13G18   29.98F
WOODRUFF       PTSUNNY   77  56  48 SE13G18   29.98F
RHINELANDER    MOSUNNY   76  56  49 SE12      29.99F
EAGLE RIVER      N/A     74  51  44 SE10      29.99F
LAND O LAKES   MOSUNNY   73  55  51 SE9       30.01F
PHILLIPS       CLOUDY    76  59  56 E12       29.94F
TOMAHAWK       MOSUNNY   77  59  55 SE7       29.96F
MEDFORD        MOSUNNY   75  61  61 E8G16     29.93F
MERRILL        MOSUNNY   75  61  62 SE12      29.96F
$$

WIZ029-030-035-036-043>047-252000-
CENTRAL WISCONSIN

CITY           SKY/WX    TMP DP  RH WIND       PRES   REMARKS
WAUSAU         MOSUNNY   76  59  55 E15G24    29.93F
MOSINEE        MOSUNNY   72  61  68 E12G20    29.96F
MARSHFIELD     SUNNY     77  61  57 E16       29.92F
STEVENS POINT  SUNNY     74  59  59 E17       29.94F
WAUPACA        MOSUNNY   78  59  50 E12G18    29.96F
WAUTOMA        PTSUNNY   77  61  57 E17G23    29.93F
WISC RAPIDS    MOSUNNY   79  59  50 E15       29.92F HX  80
CAMP DOUGLAS   CLOUDY    81  70  69 SE12      29.88S HX  84
$$

WIZ011>013-019>022-031-037>040-048>050-252000-
NORTHEAST WISCONSIN

CITY           SKY/WX    TMP DP  RH WIND       PRES   REMARKS
ANTIGO         SUNNY     74  61  64 SE13      29.99F
SHAWANO        PTSUNNY   77  60  56 E13       29.99F
OCONTO         SUNNY     68  58  69 E10G16    30.01F
STURGEON BAY   NOT AVBL
GREEN BAY      MOSUNNY   68  59  73 NE13      30.00F
MANITOWOC      PTSUNNY   60  55  83 NE10G18   30.02F
APPLETON       PTSUNNY   73  57  56 NE10G17   29.96F
CLINTONVILLE   PTSUNNY   73  57  56 E12G18    29.98F
OSHKOSH        SUNNY     75  61  61 E14G20    29.95F
$$

WIZ032>034-041-042-053>061-252000-
SOUTHWEST WISCONSIN

CITY           SKY/WX    TMP DP  RH WIND       PRES   REMARKS
LA CROSSE      LGT RAIN  71  67  87 S7        29.86F
SPARTA         TSTM      76  64  66 S7        29.90R
VIROQUA        CLOUDY    72  65  78 S7        29.91R
BOSCOBEL       CLOUDY    85  59  41 VRB6      29.86F HX  84
PRAIRIE DU CHI PTSUNNY   81  60  48 S8        29.85F HX  81
PLATTEVILLE    PTSUNNY   83  60  46 S20G28    29.90S HX  83
$$

WIZ056-057-062-063-064-067-068-252000-
SOUTH CENTRAL WISCONSIN

CITY           SKY/WX    TMP DP  RH WIND       PRES   REMARKS
REEDSBURG      CLOUDY    81  64  55 S9G21     29.88F HX  82
BARABOO/DELLS  CLOUDY    82  60  46 SE15      29.89F HX  83
LONE ROCK      CLOUDY    85  62  46 S17G23    29.88F HX  85
MINERAL POINT  CLOUDY    82  55  39 S14G21    29.89F HX  82
MADISON        PTSUNNY   83  63  50 S17       29.90F HX  84
MIDDLETON      PTSUNNY   85  61  44 S14G20    29.91S HX  85
WATERTOWN      PTSUNNY   82  65  55 SE9       29.91F HX  84
MONROE         CLOUDY    81  61  50 SE17G23   29.92F HX  81
JANESVILLE     MOSUNNY   84  61  45 SE13G20   29.92F HX  84
$$

WIZ051-052-058>065-066-070>072-252000-
SOUTHEAST WISCONSIN

CITY           SKY/WX    TMP DP  RH WIND       PRES   REMARKS
MILWAUKEE      PTSUNNY   60  52  74 NE10      29.98F
WAUKESHA       SUNNY     75  61  60 E12       29.97F
MILWAUKEE/TIMM SUNNY     68  52  56 E9        29.98F
RACINE         CLOUDY    63  52  67 NE9       29.98F
BURLINGTON     PTSUNNY   85  56  37 SE7       29.94S HX  83
KENOSHA        CLOUDY    72  60  66 E13       29.96F
FOND DU LAC    SUNNY     79  61  53 E10       29.94F HX  80
SHEBOYGAN      SUNNY     63  55  75 NE14      30.00F
WEST BEND      SUNNY     73  59  60 E9        29.97F
JUNEAU         PTSUNNY   80  65  60 E14       29.93F HX  81
$$

LSZ147-162-252000-
LAKE SUPERIOR

STATION/POSITION TIME  TEMP    WIND        PRES    WAVE
                       AIR SEA DIR/SP/G            HT/PER
                 (UTC) (F)     (DEG/KT/KT) (MB)    (FT/S)
W MID LAKE BUOY  1850   40 38   50/ 16/ 17 1017.4F   2/ 4
DEVILS ISLAND    1900   42      50/ 21/ 22 1016.8F
PORT WING        1700   43      40/ 17/ 20 1017.3S
SAXON HARBOR     1800   46     360/  5/  6 1016.3F
$$

LMZ867-665-643>646-252000-
LAKE MICHIGAN

STATION/POSITION TIME  TEMP    WIND        PRES    WAVE
                       AIR SEA DIR/SP/G            HT/PER
                 (UTC) (F)     (DEG/KT/KT) (MB)    (FT/S)
CHAMBERS ISLAND  1800   55      20/ 10/ 11 1017.6F
N MID LAKE BUOY  1850   49 45   20/ 10/ 12 1017.2F   0
NORTHPORT PIER   1800   58      70/  8/ 15 1017.9F
SISTER BAY       1820   66      20/  8/ 11   N/A
ALGOMA LAKESHORE 1702           60/ 17/ 20   N/A
KEWAUNEE LAKESHO 1800   51      30/  7/  9 1016.8F
SHEBOYGAN LAKESH 1900   49      20/ 12/ 13 1016.6F
PORT WASHINGTON  1840   54      40/ 12/ 16 1016.6F
S MID LAKE BUOY  1850   59 53  140/  4/  4 1015.0F   0
KENOSHA   LAKESH 1900   53      20/ 10/ 13 1014.6F
$$

TC  - TEMPERATURE IN CELSIUS
VSB - VISIBILITY IN STATUTE MILES
WCI - WIND CHILL INDEX
HX  - HEAT INDEX




USA.gov is the U.S. government's official web portal to all federal, state and local government web resources and services.